This is the latest recevied weather packets stored in our database for station/object N3EYQ. If no packets are shown the sender has not sent any weather packets the latest 10 day(s).
| Time | Temp. | Humidity | Pressure | Rain* | Wind** | Luminosity | Snow |
|---|---|---|---|---|---|---|---|
| 1777444124 | 12.22° C | 61% | 1017.1 hPa | 0 mm | - | - | - |
| 1777443524 | 12.22° C | 62% | 1017.1 hPa | 0 mm | - | - | - |
| 1777442924 | 12.22° C | 62% | 1017.1 hPa | 0 mm | - | - | - |
| 1777442324 | 12.22° C | 62% | 1017.4 hPa | 0 mm | - | - | - |
| 1777441724 | 12.22° C | 61% | 1017.7 hPa | 0 mm | - | - | - |
| 1777441124 | 12.22° C | 62% | 1017.7 hPa | 0 mm | - | - | - |
| 1777440524 | 11.67° C | 62% | 1017.7 hPa | 0 mm | - | - | - |
| 1777439923 | 11.67° C | 63% | 1017.7 hPa | 0 mm | - | - | - |
| 1777439323 | 11.67° C | 63% | 1017.7 hPa | 0 mm | - | - | - |
| 1777438724 | 11.67° C | 63% | 1018.1 hPa | 0 mm | - | - | - |
| 1777438123 | 11.11° C | 64% | 1018.1 hPa | 0 mm | - | - | - |
| 1777437523 | 11.11° C | 63% | 1017.7 hPa | 0 mm | - | - | - |
| 1777436923 | 11.11° C | 64% | 1017.7 hPa | 0 mm | - | - | - |
| 1777436323 | 10.56° C | 64% | 1018.1 hPa | 0 mm | - | - | - |
| 1777435722 | 10.56° C | 63% | 1018.1 hPa | 0 mm | - | - | - |
| 1777435123 | 10.56° C | 63% | 1017.7 hPa | 0 mm | - | - | - |
| 1777434522 | 11.11° C | 61% | 1017.7 hPa | 0 mm | - | - | - |
| 1777433922 | 11.11° C | 59% | 1017.4 hPa | 0 mm | - | - | - |
| 1777433323 | 11.11° C | 59% | 1017.4 hPa | 0 mm | - | - | - |
| 1777432722 | 11.67° C | 57% | 1017.4 hPa | 0 mm | - | - | - |
| 1777432122 | 12.22° C | 56% | 1017.1 hPa | 0 mm | - | - | - |
| 1777431522 | 12.22° C | 54% | 1016.7 hPa | 0 mm | - | - | - |
| 1777430921 | 13.33° C | 52% | 1017.1 hPa | 0 mm | - | - | - |
| 1777430321 | 13.33° C | 52% | 1017.1 hPa | 0 mm | - | - | - |
| 1777429721 | 13.33° C | 52% | 1017.1 hPa | 0 mm | - | - | - |
* Rain latest hour (hover to see other rain measurements)
** Current wind speed in m/s (hover to see current wind gust speed)